Preview of NWS' New Version of Forecast
This preview is not operational and should not be used for support decisions.
Latest weather observations around

London, London-Corbin Airport-Magee Field (KLOZ)

Using English Units (Switch to International System of Units)
Date/ Time (EDT) Wind (mph) Vis. (mi) Weather Sky Cond. Temp (°F) Rel. Humidity Wind Chill (°F) Heat Index (°F) Pressure Precip. (in)
Air Dwpt 6 hour Altimeter (inHg) Sea level (inHg) 1 hr 3 hr 6 hr
Max Min
Sep 23 15:53 SW 5 10 Cloudy OVC020 71 67     87%   72 30.05 30.02 0    
Sep 23 14:53 S 3 10 Cloudy OVC022 69 65     87%     30.05 30.03 0    
Sep 23 14:08 Calm 7 Light Rain FEW005 OVC023 67 65     93%     30.08   0    
Sep 23 14:01 Calm 4 Light Rain and Fog/Mist BKN021 OVC026 67 65     93%     30.08   0    
Sep 23 13:53 SSW 5 2.5 Light Rain and Fog/Mist OVC021 67 65     93%     30.08 30.05 0   0
Sep 23 13:50 S 5 2.5 Light Rain and Fog/Mist OVC021 66 64     94%     30.08   0    
Sep 23 13:22 SSW 5 3 Light Rain and Fog/Mist BKN022 OVC027 66 64     93%     30.09   0    
Sep 23 13:11 SW 7 1.5 Rain and Fog/Mist SCT022 BKN026 OVC036 67 64     90%     30.09   0    
Sep 23 13:03 SW 6 2 Rain and Fog/Mist SCT020 BKN029 OVC050 67 63     87%     30.09   0    
Sep 23 12:53 WSW 10 4 Light Rain FEW019 BKN040 OVC050 68 63     84%     30.1 30.06 0    
Sep 23 11:53 SW 6 10 Cloudy FEW028 SCT033 OVC042 72 58     61%   72 30.1 30.07      
Sep 23 10:53 Calm 10 Cloudy OVC047 71 58     63%   71 30.1 30.07      
Sep 23 09:53 SSW 5 10 Cloudy BKN055 BKN070 OVC090 70 57     63%     30.09 30.06      
Sep 23 08:53 S 5 10 Cloudy OVC060 68 57     68%     30.09 30.06      
Sep 23 07:53 Calm 10 Cloudy FEW055 OVC070 64 56     75%     30.09 30.05      
Sep 23 06:53 SSE 3 9 Cloudy OVC060 61 57     87%     30.08 30.04      
Sep 23 05:53 S 3 10 Mostly Clear FEW065 60 56     86%     30.07 30.04      
Sep 23 04:53 S 5 7 Clear CLR 62 56     80%     30.08 30.04      
Sep 23 03:53 Calm 10 Clear CLR 62 56     80%     30.08 30.04      
Sep 23 02:53 Calm 10 Clear CLR 62 56     80%     30.1 30.06      
Sep 23 01:53 Calm 10 Clear CLR 63 57     81%     30.09 30.06      
Sep 23 00:53 SSW 5 10 Clear CLR 67 56     68%     30.09 30.06      
Sep 22 23:53 SSW 3 10 Clear CLR 67 57     71%     30.1 30.06      
Sep 22 22:53 Calm 10 Clear CLR 69 57     65%     30.1 30.06      
Sep 22 21:53 Calm 10 Clear CLR 74 55     52%   73 30.09 30.06      
Sep 22 20:53 Calm 10 Clear   76 56     50%   76 30.09 30.05      
Sep 22 19:53 Calm 10 Clear CLR 79 53     41%   78 30.08 30.05      
Sep 22 18:53 S 6 10 Clear CLR 85 52     32%   83 30.07 30.03      
Sep 22 17:53 S 9 10 Clear CLR 87 52     30%   85 30.08 30.04      
Sep 22 16:53 WSW 7 10 Clear CLR 87 51     29%   85 30.09 30.06      
Sep 22 15:53 SSW 9 10 Clear CLR 87 53     31%   85 30.11 30.07      
Sep 22 14:53 SSW 9 10 Clear CLR 87 54     32%   85 30.13 30.09      
Sep 22 13:53 SW 9 10 Clear CLR 86 53     32%   84 30.16 30.12      
Sep 22 12:53 SW 11 10 Clear CLR 84 54     36%   83 30.19 30.15      
Sep 22 11:53 WSW 9 10 Mostly Clear FEW055 82 55     40%   81 30.21 30.18      
Sep 22 10:53 S 8 10 Clear CLR 78 59     52%   78 30.22 30.19      
Sep 22 09:53 Calm 10 Clear CLR 72 61     68%   72 30.24 30.2      
Sep 22 08:53 Calm 10 Clear CLR 65 61     87%     30.24 30.21      
Sep 22 07:53 Calm 7 Clear CLR 60 58     93%     30.23 30.2      
Sep 22 06:53 Calm 10 Clear CLR 60 58     93%     30.22 30.19      
Sep 22 05:53 Calm 6 Fog/Mist CLR 60 59     96%     30.22 30.18      
Sep 22 04:53 Calm 10 Clear CLR 61 59     93%     30.21 30.17      
Sep 22 03:53 Calm 10 Clear CLR 62 60     93%     30.2 30.16      
Sep 22 02:53 Calm 10 Clear CLR 63 61     93%     30.21 30.17      
Sep 22 01:53 Calm 10 Clear CLR 64 61     90%     30.21 30.18      
Sep 22 00:53 Calm 10 Clear CLR 65 62     90%     30.22 30.18      
Sep 21 23:53 Calm 10 Clear CLR 66 62     87%     30.22 30.19      
Sep 21 22:53 Calm 10 Clear CLR 68 63     84%     30.23 30.19      
Sep 21 21:53 Calm 10 Clear CLR 71 62     73%   71 30.22 30.19      
Sep 21 20:53 Calm 10 Clear CLR 73 62     68%   73 30.21 30.18      
Sep 21 19:53 Calm 10 Clear CLR 78 63     60%   78 30.2 30.16      
Sep 21 18:53 SSE 3 10 Clear CLR 84 58     41%   83 30.2 30.16      
Sep 21 17:53 Calm 10 Clear CLR 86 56     36%   85 30.2 30.16      
Sep 21 16:53 6 10 Clear CLR 87 57     36%   86 30.21 30.17      
Sep 21 15:53 Calm 10 Clear CLR 86 57     37%   85 30.23 30.19      
Sep 21 14:53 Calm 10 Clear CLR 87 57     36%   86 30.26 30.22      
Sep 21 13:53 SW 6 10 Clear CLR 84 58     41%   83 30.28 30.24      
Sep 21 12:53 WSW 6 10 Clear CLR 82 57     43%   82 30.31 30.27      
Sep 21 11:53 6 10 Clear CLR 81 58     45%   81 30.32 30.29      
Sep 21 10:53 SW 8 10 Clear CLR 76 57     52%   76 30.34 30.31      
Sep 21 09:53 SW 5 10 Clear CLR 72 62     71%   72 30.33 30.3      
Sep 21 08:53 Calm 10 Clear CLR 65 62     90%     30.33 30.3      
Sep 21 07:53 Calm 6 Fog/Mist CLR 61 60     97%     30.32 30.29      
Sep 21 06:53 Calm 6 Fog/Mist CLR 61 59     93%     30.3 30.27      
Sep 21 05:53 Calm 10 Clear CLR 62 60     93%     30.29 30.26      
Sep 21 04:53 Calm 7 Clear CLR 62 60     93%     30.28 30.24      
Sep 21 03:53 Calm 9 Clear CLR 64 61     90%     30.27 30.23      
Sep 21 02:53 Calm 9 Clear CLR 64 62     93%     30.26 30.23      
Sep 21 01:53 Calm 10 Clear CLR 66 62     87%     30.26 30.23      
Sep 21 00:53 Calm 10 Clear CLR 66 63     90%     30.26 30.23      
Sep 20 23:53 Calm 10 Partly Cloudy SCT120 68 64     87%     30.26 30.22      
Sep 20 22:53 Calm 10 Clear CLR 68 64     87%     30.25 30.22      
Sep 20 21:53 Calm 10 Clear CLR 70 64     81%     30.24 30.21      
Sep 20 20:53 Calm 10 Clear CLR 73 64     73%   73 30.23 30.19      
Sep 20 19:53 Calm 10 Clear   78 63     60%   78 30.21 30.18      
Sep 20 18:53 SSW 3 10 Clear CLR 82 61     49%   83 30.21 30.18      
Sep 20 17:53 SSW 7 10 Clear   82 61     49%   83 30.21 30.18      
Sep 20 16:53 3 10 Clear CLR 82 61     49%   83 30.22 30.18      
Sep 20 15:53   10 Clear CLR 82 60     47%   82 30.22 30.19      
Sep 20 14:53 WSW 7 10 Clear CLR 81 59     47%   81 30.24 30.21      
Sep 20 13:53 WSW 10 10 Clear CLR 79 58     49%   79 30.26 30.22      
Sep 20 11:53 SSW 9 10 Clear CLR 78 58     50%   78 30.28 30.25      
May 15 07:53 SSE 5 7 Clear CLR 66 64     93%     30.01 29.97      
May 15 05:53 SSE 3 6 Fog/Mist CLR 64 63     96%     29.99 29.95      
May 15 04:53 SSE 3 7 Clear CLR 65 64     97%     29.98 29.93      
May 12 06:53 Calm 9 Clear CLR 62 59     90%     30.14 30.1      
May 12 05:53 Calm 10 Clear CLR 62 59     90%     30.12 30.08      
Jun 11 23:53 Calm 10 Clear CLR 71 62     73%   71 30.14 30.1      
Jun 11 02:53 Calm 10 Clear   64 60     87%     30.13 30.09      
Jun 10 10:53 SSW 5 10 Clear CLR 75 58     55%   75 30.12 30.09      
Jun 10 03:53 Calm 9 Clear CLR 57 54     89%     30.03 30      
Jun 09 06:15 Calm 1.75 Fog/Mist OVC001 51 49     92%     29.96        
Jun 08 19:53 NW 8 10 Mostly Cloudy BKN085 69 51     53%     29.91 29.89      
Jun 08 14:53 WNW 9 10 Cloudy SCT033 BKN047 OVC080 69 54     59%     29.94 29.92      
Jun 08 11:53 ENE 8 10 Mostly Cloudy BKN017 66 55     68%     29.98 29.95      
Jun 08 07:53 NNE 5 10 Cloudy BKN048 OVC070 55 51     86%     29.97 29.95      
Jun 07 21:53 NNE 9 10 Clear CLR 60 51     72%     29.99 29.96      
Jun 05 15:20 NNE 3 10 Mostly Cloudy FEW017 SCT029 BKN095 71 64     79%   72 29.82   0    
Jun 05 15:12 NNE 3 10 Mostly Cloudy SCT017 BKN029 BKN055 71 64     79%   72 29.82   0